DW5852 Weather Reports


Display with metric or nautical units.
time (UTC)temp
F
wind
direction
speed
MPH
gust
MPH
rain 1hr
in
rain 24hr
in
rain mn
in
humidity
%
barometer
mb
20210513090244 46 228 4.0 11.0 0.00 0.00 0.00 77 1031.7
20210513085744 46 258 5.0 10.0 0.00 0.00 0.00 77 1031.7
20210513085244 46 194 5.0 8.0 0.00 0.00 0.00 77 1031.8
20210513084744 46 221 3.0 8.0 0.00 0.00 0.00 77 1031.8
20210513084244 46 218 3.0 9.0 0.00 0.00 0.00 77 1032.0
20210513083744 46 243 2.0 11.0 0.00 0.00 0.00 76 1032.1
20210513083244 46 193 5.0 8.0 0.00 0.00 0.00 76 1032.2
20210513082744 46 257 1.0 8.0 0.00 0.00 0.00 76 1032.3
20210513082245 46 219 8.0 7.0 0.00 0.00 0.00 76 1032.3
20210513081744 46 170 0.0 8.0 0.00 0.00 0.00 76 1032.4
20210513081244 46 231 0.0 6.0 0.00 0.00 0.00 76 1032.5
20210513080744 46 235 2.0 7.0 0.00 0.00 0.00 75 1032.6
20210513080244 46 210 0.0 5.0 0.00 0.00 0.00 75 1032.6
20210513075744 46 126 0.0 7.0 0.00 0.00 0.00 75 1032.7
20210513075244 46 186 0.0 4.0 0.00 0.00 0.00 75 1032.8
20210513074744 46 248 0.0 7.0 0.00 0.00 0.00 75 1032.8
20210513074244 46 204 3.0 7.0 0.00 0.00 0.00 75 1032.9
20210513073744 46 221 0.0 6.0 0.00 0.00 0.00 75 1032.9
20210513073244 47 165 1.0 5.0 0.00 0.00 0.00 74 1033.0
20210513072744 47 203 0.0 5.0 0.00 0.00 0.00 74 1033.1
20210513072245 47 212 0.0 6.0 0.00 0.00 0.00 74 1033.2
20210513071744 47 176 3.0 6.0 0.00 0.00 0.00 73 1033.2
20210513071244 47 162 2.0 7.0 0.00 0.00 0.00 73 1033.2
20210513070744 47 245 0.0 6.0 0.00 0.00 0.00 73 1033.3
20210513070244 47 191 6.0 6.0 0.00 0.00 0.00 73 1033.3
20210513065744 48 222 2.0 10.0 0.00 0.00 0.00 72 1033.4
20210513065245 48 224 1.0 10.0 0.00 0.00 0.00 72 1033.4
20210513064744 48 163 1.0 10.0 0.00 0.00 0.00 72 1033.4
20210513064245 48 200 1.0 7.0 0.00 0.00 0.00 72 1033.3
20210513063744 48 164 5.0 9.0 0.00 0.00 0.00 72 1033.4
20210513063244 48 212 3.0 5.0 0.00 0.00 0.00 72 1033.4
20210513062744 48 142 0.0 8.0 0.00 0.00 0.00 72 1033.4
20210513062245 48 194 3.0 8.0 0.00 0.00 0.00 72 1033.5
20210513061744 48 198 0.0 7.0 0.00 0.00 0.00 71 1033.6
20210513061244 48 193 6.0 10.0 0.00 0.00 0.00 71 1033.6
20210513060744 48 176 1.0 8.0 0.00 0.00 0.00 71 1033.5
20210513060244 49 170 5.0 13.0 0.00 0.00 0.00 71 1033.6
20210513055745 49 221 0.0 9.0 0.00 0.00 0.00 70 1033.6
20210513055245 49 203 2.0 7.0 0.00 0.00 0.00 70 1033.7
20210513054744 49 205 0.0 6.0 0.00 0.00 0.00 70 1033.7
20210513054244 49 191 6.0 8.0 0.00 0.00 0.00 69 1033.7
20210513053744 49 207 6.0 11.0 0.00 0.00 0.00 69 1033.7
20210513053245 49 143 1.0 10.0 0.00 0.00 0.00 69 1033.7
20210513052744 49 158 5.0 9.0 0.00 0.00 0.00 69 1033.6
20210513052245 49 232 0.0 7.0 0.00 0.00 0.00 69 1033.7
20210513051744 49 155 0.0 6.0 0.00 0.00 0.00 69 1033.6
20210513051244 50 140 5.0 7.0 0.00 0.00 0.00 69 1033.6
20210513050744 50 207 1.0 9.0 0.00 0.00 0.00 68 1033.7
20210513050244 50 179 2.0 7.0 0.00 0.00 0.00 68 1033.7
20210513045744 50 176 2.0 7.0 0.00 0.00 0.00 68 1033.7
20210513045244 50 176 3.0 6.0 0.00 0.00 0.00 68 1033.6
20210513044744 50 197 0.0 5.0 0.00 0.00 0.00 67 1033.7
20210513044244 51 163 1.0 9.0 0.00 0.00 0.00 67 1033.7
20210513043744 51 194 0.0 6.0 0.00 0.00 0.00 67 1033.6
20210513043244 51 197 2.0 9.0 0.00 0.00 0.00 66 1033.5
20210513042744 51 180 0.0 8.0 0.00 0.00 0.00 66 1033.5
20210513042244 51 174 3.0 7.0 0.00 0.00 0.00 65 1033.4
20210513041744 52 174 2.0 10.0 0.00 0.00 0.00 65 1033.3
20210513041244 52 210 3.0 7.0 0.00 0.00 0.00 64 1033.2
20210513040744 52 220 0.0 9.0 0.00 0.00 0.00 63 1033.2
20210513040244 53 164 1.0 4.0 0.00 0.00 0.00 63 1033.1
20210513035745 53 186 1.0 8.0 0.00 0.00 0.00 62 1033.0
20210513035244 53 153 1.0 8.0 0.00 0.00 0.00 62 1033.0
20210513034744 53 193 0.0 5.0 0.00 0.00 0.00 61 1032.8
20210513034244 54 214 6.0 6.0 0.00 0.00 0.00 60 1032.8
20210513033744 54 224 0.0 4.0 0.00 0.00 0.00 60 1032.6
20210513033244 54 228 0.0 7.0 0.00 0.00 0.00 59 1032.5
20210513032744 55 158 2.0 3.0 0.00 0.00 0.00 58 1032.4
20210513032244 55 218 1.0 2.0 0.00 0.00 0.00 57 1032.2
20210513031744 55 197 2.0 5.0 0.00 0.00 0.00 56 1032.0
20210513031244 56 150 0.0 5.0 0.00 0.00 0.00 55 1031.8
20210513030744 56 172 1.0 6.0 0.00 0.00 0.00 53 1031.6
20210513030244 57 167 1.0 8.0 0.00 0.00 0.00 51 1031.4
20210513025744 57 197 0.0 3.0 0.00 0.00 0.00 48 1031.2
20210513025244 58 165 0.0 6.0 0.00 0.00 0.00 47 1031.1
20210513024744 58 184 0.0 8.0 0.00 0.00 0.00 46 1030.9
20210513024244 59 160 0.0 6.0 0.00 0.00 0.00 41 1030.8
20210513023744 59 166 0.0 11.0 0.00 0.00 0.00 40 1030.6
20210513023244 59 172 3.0 4.0 0.00 0.00 0.00 35 1030.4
20210513022744 60 197 0.0 3.0 0.00 0.00 0.00 35 1030.2
20210513022244 60 191 1.0 5.0 0.00 0.00 0.00 34 1030.0
20210513021744 60 232 0.0 4.0 0.00 0.00 0.00 34 1029.8
20210513021244 60 208 0.0 5.0 0.00 0.00 0.00 33 1029.7
20210513020744 61 207 0.0 5.0 0.00 0.00 0.00 33 1029.6
20210513020244 61 152 2.0 11.0 0.00 0.00 0.00 32 1029.4
20210513015744 61 165 2.0 12.0 0.00 0.00 0.00 32 1029.2
20210513015244 62 195 1.0 9.0 0.00 0.00 0.00 32 1029.0
20210513014744 62 242 5.0 6.0 0.00 0.00 0.00 31 1028.7
20210513014244 63 146 1.0 7.0 0.00 0.00 0.00 31 1028.6
20210513013744 64 183 2.0 11.0 0.00 0.00 0.00 30 1028.5
20210513013244 65 208 3.0 8.0 0.00 0.00 0.00 29 1028.4
20210513012744 66 173 4.0 9.0 0.00 0.00 0.00 28 1028.2
20210513012244 67 221 4.0 13.0 0.00 0.00 0.00 27 1028.0
20210513011744 67 188 2.0 8.0 0.00 0.00 0.00 21 1027.8
20210513011244 67 218 1.0 5.0 0.00 0.00 0.00 21 1027.7
20210513010744 68 221 0.0 4.0 0.00 0.00 0.00 20 1027.6
20210513010244 68 190 0.0 4.0 0.00 0.00 0.00 21 1027.5
20210513005744 68 238 0.0 9.0 0.00 0.00 0.00 21 1027.3
20210513005244 68 225 2.0 6.0 0.00 0.00 0.00 20 1027.2
20210513004744 68 186 2.0 10.0 0.00 0.00 0.00 20 1027.1
20210513004244 69 256 7.0 9.0 0.00 0.00 0.00 20 1027.0
20210513003744 69 288 2.0 12.0 0.00 0.00 0.00 20 1026.8
20210513003244 69 195 8.0 13.0 0.00 0.00 0.00 20 1026.7
20210513002744 69 333 1.0 5.0 0.00 0.00 0.00 21 1026.7
20210513002244 69 300 0.0 7.0 0.00 0.00 0.00 20 1026.6
20210513001745 69 229 0.0 6.0 0.00 0.00 0.00 21 1026.6
20210513001244 68 316 1.0 7.0 0.00 0.00 0.00 21 1026.5
20210513000744 68 307 3.0 5.0 0.00 0.00 0.00 21 1026.3
20210513000246 68 243 1.0 7.0 0.00 0.00 0.00 21 1026.3
20210512235744 68 253 0.0 11.0 0.00 0.00 0.00 22 1026.3
20210512235244 68 222 2.0 7.0 0.00 0.00 0.00 22 1026.2
20210512234745 67 226 0.0 8.0 0.00 0.00 0.00 22 1026.0
20210512234244 67 321 0.0 5.0 0.00 0.00 0.00 21 1025.9
20210512233744 67 224 2.0 9.0 0.00 0.00 0.00 22 1025.7
20210512233244 66 239 3.0 9.0 0.00 0.00 0.00 22 1025.7
20210512232744 66 255 2.0 10.0 0.00 0.00 0.00 21 1025.5
20210512232244 67 280 1.0 8.0 0.00 0.00 0.00 21 1025.4
20210512231745 67 240 1.0 9.0 0.00 0.00 0.00 21 1025.4
20210512231244 67 229 7.0 9.0 0.00 0.00 0.00 21 1025.2
20210512230744 68 241 8.0 12.0 0.00 0.00 0.00 21 1025.2
20210512230244 69 237 9.0 13.0 0.00 0.00 0.00 20 1025.1
20210512225744 69 302 2.0 9.0 0.00 0.00 0.00 20 1025.0
20210512225244 68 188 1.0 12.0 0.00 0.00 0.00 20 1024.9
20210512224745 69 278 7.0 9.0 0.00 0.00 0.00 18 1024.8
20210512224244 69 242 4.0 17.0 0.00 0.00 0.00 19 1024.7
20210512223744 68 207 5.0 3.0 0.00 0.00 0.00 26 1024.5
20210512223244 67 246 3.0 11.0 0.00 0.00 0.00 29 1024.4
20210512222744 68 213 12.0 12.0 0.00 0.00 0.00 28 1024.1
20210512222244 69 241 3.0 11.0 0.00 0.00 0.00 22 1024.3
20210512221745 68 256 7.0 9.0 0.00 0.00 0.00 22 1024.1
20210512221244 67 235 3.0 16.0 0.00 0.00 0.00 23 1023.8
20210512220744 66 153 5.0 16.0 0.00 0.00 0.00 30 1023.7
20210512220244 65 126 4.0 17.0 0.00 0.00 0.00 30 1023.7
20210512215744 66 203 10.0 15.0 0.00 0.00 0.00 31 1023.8
20210512215244 66 190 11.0 15.0 0.00 0.00 0.00 31 1023.7
20210512214745 65 191 2.0 12.0 0.00 0.00 0.00 33 1023.7
20210512214244 65 215 8.0 20.0 0.00 0.00 0.00 32 1023.7
20210512213744 64 156 5.0 15.0 0.00 0.00 0.00 33 1023.8
20210512213244 64 194 13.0 16.0 0.00 0.00 0.00 34 1023.7
20210512212744 62 163 6.0 19.0 0.00 0.00 0.00 34 1023.7
20210512212244 62 145 7.0 18.0 0.00 0.00 0.00 36 1023.8
20210512211744 62 113 0.0 8.0 0.00 0.00 0.00 37 1023.8
20210512211244 62 159 1.0 11.0 0.00 0.00 0.00 37 1023.8
20210512210744 62 131 1.0 12.0 0.00 0.00 0.00 37 1023.8
20210512210244 61 141 11.0 16.0 0.00 0.00 0.00 38 1023.8
20210512205744 61 114 4.0 14.0 0.00 0.00 0.00 38 1023.8
20210512205244 62 195 11.0 16.0 0.00 0.00 0.00 38 1023.9
20210512204744 62 4 6.0 19.0 0.00 0.00 0.00 38 1023.9
20210512204244 62 190 8.0 16.0 0.00 0.00 0.00 38 1023.8
20210512203744 61 159 6.0 18.0 0.00 0.00 0.00 39 1023.6
20210512203244 61 82 3.0 15.0 0.00 0.00 0.00 39 1023.8
20210512202744 62 126 1.0 15.0 0.00 0.00 0.00 38 1023.7
20210512202244 62 156 2.0 12.0 0.00 0.00 0.00 39 1023.7
20210512201744 62 139 0.0 17.0 0.00 0.00 0.00 40 1023.8
20210512201245 61 221 8.0 16.0 0.00 0.00 0.00 40 1023.7
20210512200744 61 63 0.0 12.0 0.00 0.00 0.00 41 1023.8
20210512200244 60 79 2.0 11.0 0.00 0.00 0.00 41 1023.7
20210512195744 60 70 15.0 15.0 0.00 0.00 0.00 41 1023.8
20210512195244 60 94 0.0 12.0 0.00 0.00 0.00 40 1023.7
20210512194744 62 108 3.0 9.0 0.00 0.00 0.00 39 1023.7
20210512194245 62 120 4.0 16.0 0.00 0.00 0.00 39 1023.6
20210512193744 62 91 3.0 14.0 0.00 0.00 0.00 41 1023.6
20210512193244 61 125 7.0 12.0 0.00 0.00 0.00 42 1023.6
20210512192744 60 173 1.0 12.0 0.00 0.00 0.00 43 1023.5
20210512192245 59 163 8.0 16.0 0.00 0.00 0.00 44 1023.6
20210512191744 60 120 9.0 15.0 0.00 0.00 0.00 43 1023.5
20210512191245 59 98 0.0 11.0 0.00 0.00 0.00 45 1023.5
20210512190744 58 167 7.0 15.0 0.00 0.00 0.00 45 1023.6
20210512190244 58 190 7.0 14.0 0.00 0.00 0.00 46 1023.6
20210512185744 58 145 5.0 9.0 0.00 0.00 0.00 47 1023.6
20210512185244 57 68 4.0 13.0 0.00 0.00 0.00 48 1023.5
20210512184744 57 155 9.0 14.0 0.00 0.00 0.00 47 1023.5
20210512184245 58 187 10.0 14.0 0.00 0.00 0.00 47 1023.7
20210512183744 58 158 1.0 9.0 0.00 0.00 0.00 48 1023.6
20210512183244 57 172 5.0 9.0 0.00 0.00 0.00 49 1023.7
20210512182744 56 225 0.0 14.0 0.00 0.00 0.00 50 1023.6
20210512182244 56 139 7.0 11.0 0.00 0.00 0.00 51 1023.7
20210512181744 55 173 0.0 13.0 0.00 0.00 0.00 52 1023.8
20210512181245 55 159 9.0 20.0 0.00 0.00 0.00 51 1023.8
20210512180744 55 214 2.0 10.0 0.00 0.00 0.00 52 1023.8
20210512180244 55 153 3.0 15.0 0.00 0.00 0.00 53 1023.8
20210512175744 54 186 1.0 15.0 0.00 0.00 0.00 53 1023.8
20210512175244 54 142 3.0 15.0 0.00 0.00 0.00 54 1023.7
20210512174744 53 139 6.0 18.0 0.00 0.00 0.00 55 1023.7
20210512174245 53 177 6.0 13.0 0.00 0.00 0.00 56 1023.7
20210512173744 52 154 4.0 16.0 0.00 0.00 0.00 56 1023.7
20210512173244 52 153 6.0 15.0 0.00 0.00 0.00 57 1023.8
20210512172744 52 150 9.0 13.0 0.00 0.00 0.00 58 1023.7
20210512172245 51 161 2.0 17.0 0.00 0.00 0.00 59 1023.7
20210512171744 51 134 10.0 17.0 0.00 0.00 0.00 59 1023.7
20210512171245 50 142 9.0 18.0 0.00 0.00 0.00 59 1023.8
20210512170744 50 150 8.0 20.0 0.00 0.00 0.00 60 1023.6
20210512170244 50 293 7.0 17.0 0.00 0.00 0.00 60 1023.7
20210512165744 50 174 9.0 17.0 0.00 0.00 0.00 60 1023.6
20210512165244 50 186 3.0 21.0 0.00 0.00 0.00 61 1023.6
20210512164744 50 183 12.0 20.0 0.00 0.00 0.00 60 1023.5
20210512164244 50 166 3.0 14.0 0.00 0.00 0.00 62 1023.5
20210512163744 49 181 13.0 19.0 0.00 0.00 0.00 62 1023.4
20210512163244 49 137 5.0 10.0 0.00 0.00 0.00 62 1023.5
20210512162744 49 150 10.0 14.0 0.00 0.00 0.00 64 1023.5
20210512162244 48 132 5.0 15.0 0.00 0.00 0.00 64 1023.5
20210512161744 48 155 4.0 11.0 0.00 0.00 0.00 65 1023.6
20210512161244 48 103 2.0 17.0 0.00 0.00 0.00 65 1023.6
20210512160744 48 152 9.0 15.0 0.00 0.00 0.00 64 1023.5
20210512160244 48 122 5.0 12.0 0.00 0.00 0.00 65 1023.6
20210512155744 48 170 9.0 16.0 0.00 0.00 0.00 65 1023.6
20210512155244 48 228 1.0 10.0 0.00 0.00 0.00 65 1023.6
20210512154744 48 165 6.0 13.0 0.00 0.00 0.00 65 1023.7
20210512154244 47 191 3.0 10.0 0.00 0.00 0.00 67 1023.7
20210512153744 47 166 8.0 15.0 0.00 0.00 0.00 68 1023.8
20210512153244 46 207 1.0 12.0 0.00 0.00 0.00 68 1023.9
20210512152744 46 160 8.0 18.0 0.00 0.00 0.00 68 1023.9
20210512152244 46 138 1.0 14.0 0.00 0.00 0.00 69 1024.0
20210512151744 46 176 0.0 10.0 0.00 0.00 0.00 71 1024.2
20210512151244 45 194 1.0 12.0 0.00 0.00 0.00 70 1024.2
20210512150745 45 176 10.0 12.0 0.00 0.00 0.00 71 1024.2
20210512150244 45 200 1.0 12.0 0.00 0.00 0.00 71 1024.2
20210512145744 44 183 3.0 10.0 0.00 0.00 0.00 72 1024.3
20210512145244 44 212 1.0 11.0 0.00 0.00 0.00 74 1024.4
20210512144744 43 152 0.0 12.0 0.00 0.00 0.00 75 1024.4
20210512144244 42 224 0.0 9.0 0.00 0.00 0.00 76 1024.6
20210512143744 42 191 5.0 14.0 0.00 0.00 0.00 76 1024.6
20210512143244 42 180 3.0 10.0 0.00 0.00 0.00 78 1024.7
20210512142744 41 195 4.0 10.0 0.00 0.00 0.00 79 1024.7
20210512142244 41 176 2.0 10.0 0.00 0.00 0.00 79 1024.8
20210512141744 41 145 4.0 11.0 0.00 0.00 0.00 80 1024.8
20210512141245 41 222 0.0 9.0 0.00 0.00 0.00 79 1024.9
20210512140745 41 172 5.0 12.0 0.00 0.00 0.00 79 1025.0
20210512140244 41 174 3.0 10.0 0.00 0.00 0.00 79 1025.1
20210512135744 41 170 2.0 10.0 0.00 0.00 0.00 79 1025.1
20210512135244 41 164 6.0 14.0 0.00 0.00 0.00 79 1025.2
20210512134744 41 214 6.0 12.0 0.00 0.00 0.00 78 1025.3
20210512134244 41 153 7.0 13.0 0.00 0.00 0.00 77 1025.4
20210512133744 41 212 1.0 10.0 0.00 0.00 0.00 77 1025.4
20210512133244 42 241 1.0 13.0 0.00 0.00 0.00 76 1025.4
20210512132744 42 197 0.0 7.0 0.00 0.00 0.00 76 1025.4
20210512132244 42 149 0.0 13.0 0.00 0.00 0.00 77 1025.5
20210512131744 41 152 12.0 12.0 0.00 0.00 0.00 77 1025.5
20210512131244 41 160 2.0 7.0 0.00 0.00 0.00 77 1025.6
20210512130744 41 193 2.0 11.0 0.00 0.00 0.00 77 1025.6
20210512130244 41 219 0.0 10.0 0.00 0.00 0.00 77 1025.7
20210512125744 41 203 4.0 11.0 0.00 0.00 0.00 78 1025.7
20210512125244 41 193 1.0 11.0 0.00 0.00 0.00 79 1025.8
20210512124744 41 328 1.0 10.0 0.00 0.00 0.00 80 1025.7
20210512124244 40 142 0.0 9.0 0.00 0.00 0.00 81 1025.7
20210512123744 40 200 1.0 10.0 0.00 0.00 0.00 81 1025.8
20210512123244 40 197 6.0 10.0 0.00 0.00 0.00 81 1025.8
20210512122744 40 105 3.0 16.0 0.00 0.00 0.00 82 1025.7
20210512122244 39 6 0.0 10.0 0.00 0.00 0.00 82 1025.6
20210512121744 39 236 1.0 9.0 0.00 0.00 0.00 83 1025.6
20210512121244 39 191 2.0 13.0 0.00 0.00 0.00 83 1025.7
20210512120744 39 167 8.0 11.0 0.00 0.00 0.00 84 1025.8
20210512120244 39 240 0.0 8.0 0.00 0.00 0.00 84 1025.8
20210512115744 39 210 0.0 14.0 0.00 0.00 0.00 84 1025.8
20210512115244 39 260 0.0 14.0 0.00 0.00 0.00 84 1025.8
20210512114744 39 160 0.0 8.0 0.00 0.00 0.00 85 1026.0
20210512114244 39 155 1.0 12.0 0.00 0.00 0.00 85 1026.0
20210512113744 39 150 2.0 11.0 0.00 0.00 0.00 85 1026.0
20210512113245 39 177 1.0 10.0 0.00 0.00 0.00 85 1026.0
20210512112744 39 181 0.0 12.0 0.00 0.00 0.00 85 1026.1
20210512112244 39 204 2.0 11.0 0.00 0.00 0.00 86 1026.2
20210512111744 39 117 0.0 8.0 0.00 0.00 0.00 86 1026.4
20210512111244 39 203 2.0 12.0 0.00 0.00 0.00 86 1026.4
20210512110744 39 215 4.0 11.0 0.00 0.00 0.00 86 1026.5
20210512110244 39 193 6.0 9.0 0.00 0.00 0.00 86 1026.5
20210512105744 39 225 0.0 10.0 0.00 0.00 0.00 86 1026.6
20210512105244 39 245 7.0 14.0 0.00 0.00 0.00 86 1026.6
20210512104744 39 232 0.0 14.0 0.00 0.00 0.00 86 1026.5
20210512104244 39 205 0.0 13.0 0.00 0.00 0.00 85 1026.8
20210512103744 39 195 5.0 14.0 0.00 0.00 0.00 85 1027.0
20210512103244 39 186 1.0 11.0 0.00 0.00 0.00 86 1027.1
20210512102744 39 201 6.0 13.0 0.00 0.00 0.00 86 1027.2
20210512102244 39 191 1.0 13.0 0.00 0.00 0.00 85 1027.2
20210512101744 39 252 2.0 11.0 0.00 0.00 0.00 85 1027.3
20210512101244 39 186 3.0 11.0 0.00 0.00 0.00 84 1027.5
20210512100744 40 245 1.0 13.0 0.00 0.00 0.00 84 1028.0
20210512100244 40 222 3.0 11.0 0.00 0.00 0.00 84 1027.9
20210512095744 40 223 1.0 10.0 0.00 0.00 0.00 84 1027.8
20210512095244 40 246 1.0 12.0 0.00 0.00 0.00 84 1027.8
20210512094744 40 162 3.0 11.0 0.00 0.00 0.00 83 1027.8
20210512094244 40 215 4.0 12.0 0.00 0.00 0.00 83 1028.1
20210512093744 40 180 0.0 11.0 0.00 0.00 0.00 83 1028.3
20210512093244 40 203 1.0 10.0 0.00 0.00 0.00 83 1028.4
20210512092745 40 186 2.0 12.0 0.00 0.00 0.00 83 1028.5
20210512092244 40 302 0.0 12.0 0.00 0.00 0.00 83 1028.5
20210512091744 41 253 13.0 13.0 0.00 0.00 0.00 82 1028.7
20210512091244 41 240 6.0 8.0 0.00 0.00 0.00 82 1029.0
20210512090744 41 221 0.0 7.0 0.00 0.00 0.00 82 1028.8